AL-1 (AOLONG 1)

Last updated on Sept. 21, 2016, 8:01 p.m. UTC

1 41629U 16042F   16239.65613786  .02812959  76394-5  11024-3 0  9999
2 41629  40.7954   1.0182 0028766 314.0142  46.0026 16.40441923 10013

Satellite is not in orbit.